Keyes, OK (73947)

7:50 AM CDT on April 30, 2017 (GMT -0500)
Fort Wiegers | | Change Station
Active Advisory: Winter Storm Warning

Elev 3554 ft 37.04 °N, 101.97 °W | Updated 4 seconds ago

Snow
Snow
32.7 °F
Feels Like 33 °F
N
0.0
Wind Variable Wind from NNW
Gusts 0.0 mph

Today
High -- | Low -- °F
--% Chance of Precip.
Yesterday
High -- | Low -- °F
Precip. -- in
Pressure 29.67 in
Visibility 0.8 miles
Clouds Overcast 500 ft
Windchill 33 °F
Dew Point 32 °F
Humidity 96%
Rainfall 0.02 in
Snow Depth Not available.
6:55 AM 8:37 PM
Waxing Crescent, 22% visible
SPECI KGUY 301133Z AUTO 33032G40KT 3/4SM -SN BR OVC005 01/01 A2967 RMK AO2 PK WND 34043/1119 P0003 T00060006 $
Pressure 29.67 in
Visibility 0.8 miles
Clouds Overcast 500 ft
Windchill 33 °F
Dew Point 32 °F
Humidity 96%
Rainfall 0.02 in
Snow Depth Not available.
6:55 AM 8:37 PM
Waxing Crescent, 22% visible
SPECI KGUY 301133Z AUTO 33032G40KT 3/4SM -SN BR OVC005 01/01 A2967 RMK AO2 PK WND 34043/1119 P0003 T00060006 $

Get Your Daily Forecast Email!

Thanks for signing up!

Be on the lookout for a verification email in your inbox.

You'll start receiving severe weather alerts in your inbox..

×

10-Day Weather Forecast

Almanac

Astronomy

Apr. 30, 2017 Rise Set
Actual Time
Civil Twilight
Nautical Twilight
Astronomical Twilight
Moon
Length of Visible Light
Length of Day
Tomorrow will be .
, % of the Moon is Illuminated

Today's Extremes

State Highs State Lows

Community

WunderPhotos

WunderBlog® & News

Nearby

Air Quality

  Air Quality AQ Index Pollutant
Not available.

Snow Depth

Station Depth Elevation

Earthquake Activity

City Distance Mag. Time & Date
Minimum magnitude displayed is 2.5.

Coastal Water Temperatures

Place Temperature

Stations

Nearby Weather Stations

Station Location Temp. Windchill Dew Point Humidity Wind Precip. Elev Updated Type
                   

Watches & Warnings

Winter Storm Warning
Issued: 3:44 AM CDT Apr. 30, 2017 – National Weather Service

... Winter Storm Warning remains in effect until 7 PM CDT this
evening...

* timing... through 7 PM Sunday.

* Precip type... snow.

* Accumulations... storm total snow accumulations of 6 to 12
inches are expected, with the highest amounts along the
extreme northwest Texas and Oklahoma Panhandle.

* Impacts... the potential exists for very difficult to impossible
driving conditions due to reduction in visibility along with
slick roadways. North winds 30 to 40 mph with higher gusts will
cause drifting of snow and reduced visibilities. Power outages
may occur.

Precautionary/preparedness actions...

A Winter Storm Warning means significant amounts of snow...
sleet... or ice are expected or occurring. Strong winds are also
possible. This will make travel very hazardous or impossible.